Regional Weather Roundup
Issued by NWS

Home | Current Version | Previous Version | Graphics & Text | Print | Product List | Glossary On
Versions: 1 2 3 4 5 6 7 8 9 10 11 12 13 14 15 16 17 18 19 20 21 22 23 24 25 26 27 28 29 30 31 32 33 34 35 36 37 38 39 40 41 42 43 44 45 46 47 48 49 50
000
ASUS43 KFSD 190810
RWRSD

WEATHER ROUNDUP FOR SOUTH DAKOTA
NATIONAL WEATHER SERVICE SIOUX FALLS SD
300 AM CDT SUN APR 19 2015

NOTE: "FAIR" INDICATES FEW OR NO CLOUDS BELOW 12,000 FEET WITH NO
SIGNIFICANT WEATHER AND/OR OBSTRUCTIONS TO VISIBILITY.


SDZ001>005-009-010-012>017-190900-
NORTHWEST AND NORTH CENTRAL SOUTH DAKOTA

CITY           SKY/WX    TMP DP  RH WIND       PRES   REMARKS
BUFFALO          N/A     38  26  62 NW16      29.98R
FAITH            N/A     44  37  76 NW21      29.95F
MOBRIDGE       CLOUDY    47  44  90 NW21G29   29.85S
$$

SDZ012>016-024>037-041>051-057-063-072>074-190900-
SOUTHWEST AND SOUTH CENTRAL SOUTH DAKOTA

CITY           SKY/WX    TMP DP  RH WIND       PRES   REMARKS
RAPID CTY ARPT CLOUDY    44  34  67 NW24G32   29.99F
PIERRE         CLOUDY    47  45  93 NW17      29.85R
CUSTER         MOCLDY    35  25  66 N12G18    30.01R WCI  27
ELLSWORTH AFB  CLOUDY    44  35  71 NW26G32   29.98F
PHILIP         CLOUDY    47  42  83 NW17      29.93R
PINE RIDGE     LGT RAIN  44  39  82 N18G28    29.98R
SPEARFISH      FAIR      37  28  70 NW12      30.07F
WINNER         LGT RAIN  48  45  89 NW17G26   29.85R
$$

SDZ004>011-016>023-039-040-190900-
NORTHEAST SOUTH DAKOTA

CITY           SKY/WX    TMP DP  RH WIND       PRES   REMARKS
ABERDEEN       CLOUDY    49  47  93 N16       29.78F
WATERTOWN      LGT RAIN  52  50  93 N3        29.70F FOG
BROOKINGS      CLOUDY    57  55  94 SW5       29.73S VSB 1/4
SISSETON         N/A     50  49  96 NE12      29.71F
$$

SDZ017-020-022-023-036>040-048>070-190900-
SOUTHEAST SOUTH DAKOTA

CITY           SKY/WX    TMP DP  RH WIND       PRES   REMARKS
SIOUX FALLS    CLOUDY    57  55  93 SW8       29.73F
HURON          LGT RAIN  52  50  93 NW17      29.75R FOG
CHAMBERLAIN    CLOUDY    47  46  95 NW17G24   29.82R
MITCHELL       CLOUDY    55  53  93 W12       29.77S FOG
YANKTON        CLOUDY    54  52  94 CALM      29.75S VSB 1/2
$$

ABBREVIATIONS USED IN REMARKS
   TC - TEMPERATURE IN CELSIUS
  WCI - WIND CHILL INDEX
   HX - HEAT INDEX
  VSB - VISIBILITY




USA.gov is the U.S. government's official web portal to all federal, state and local government web resources and services.